User: anonymous
Location: Clatteringshaws Loch
(55.0508°N, 4.2860°W)
Time: 23:59:59
(UTC+01:00)
Language:

Cosmos 2221 Rocket - Orbit

View from above orbital plane
View from above orbital plane
View from above satellite
View from above satellite

Ground track
Ground track

The orbit data is extracted from the following two-line orbital elements,

1 22237U 92080B   14237.94532300  .00000185  00000-0  22600-4 0  4137
2 22237 082.5154 352.1547 0018650 323.2204 175.1015 14.77885815171830
Epoch (UTC): 25 August 2014 22:41:15
Eccentricity: 0.0018650
inclination: 82.5154°
perigee height: 623 km
apogee height: 649 km
right ascension of ascending node: 352.1547°
argument of perigee: 323.2204°
revolutions per day: 14.77885815
mean anomaly at epoch: 175.1015°
orbit number at epoch: 17183

The dashed part of the orbit path shows where the satellite is in the earth's shadow,  

DLR